{"data":{"norad_id":44339,"epoch":"2026-05-25T00:35:32.845344Z","epoch_age_seconds":69358,"freshness":"FRESH","line1":"1 44339U 19036A   26145.02468571  .00012369  00000+0  12228-2 0  9990","line2":"2 44339  23.9950 268.9077 0006581 119.7701 240.3454 14.89981024370017","mean_motion":14.89981024,"eccentricity":0.0006581,"inclination_deg":23.995,"raan_deg":268.9077,"arg_perigee_deg":119.7701,"mean_anomaly_deg":240.3454,"bstar":0.0012228,"rev_number":37001,"period_min":96.645526137922,"perigee_km":593.40390300653,"apogee_km":602.58588780727,"semimajor_km":6976.1318954069,"source":"CELESTRAK","updated_at":"2026-05-25T13:37:55.968520Z"}}